Location: Joplin
(37.0842°N, 94.5131°W)
Time: 21:23:29
(UTC-05:00)

Envisat - Pass Details

Date: 03 October 2021
Orbit: 764 x 766 km, 98.2° (Epoch: 23 October)

Event Time Altitude Azimuth Distance (km) Brightness Sun altitude
Rises 05:42:28 0° 23° (NNE) 3,235 6.7 -19.3°
Reaches altitude 10° 05:45:01 10° 33° (NNE) 2,305 6.1 -18.8°
Maximum altitude 05:49:33 32° 97° (E) 1,282 4.8 -17.9°
Drops below altitude 10° 05:54:03 10° 160° (SSE) 2,290 5.6 -17.0°
Sets 05:56:34 0° 170° (S) 3,212 6.3 -16.5°
